Regional Weather Roundup
Issued by NWS

Home | Current Version | Previous Version | Graphics & Text | Print | Product List | Glossary On
Versions: 1 2 3 4 5 6 7 8 9 10 11 12 13 14 15 16 17 18 19 20 21 22 23 24 25 26 27 28 29 30 31 32 33 34 35 36 37 38 39 40 41 42 43 44 45 46 47 48 49 50
855
ASUS44 KMEG 270910
RWRTN
TENNESSEE HOURLY STATE WEATHER ROUNDUP
NATIONAL WEATHER SERVICE MEMPHIS TN
400 AM CDT FRI MAY 27 2016

TNZ002-004-019-021-049-052-054-088>092-271000-
WEST TENNESSEE

CITY           SKY/WX    TMP DP  RH WIND       PRES   REMARKS
MEMPHIS INTL   CLOUDY    73  67  81 S10       29.90F
NWS MEMPHIS      N/A     69 N/A N/A MISG        N/A
JACKSON        CLOUDY    69  64  84 S7        29.95R
DYERSBURG      CLOUDY    68  64  88 SE6       29.92F
UNION CITY     CLOUDY    66  66 100 SE6       29.92S
PARIS          CLEAR     64  63  94 SE7       29.96S
LEXINGTON      CLEAR     64  64 100 CALM      29.96S
$$

TNZ008-025-027-028-033-062-065-066-271000-
NORTH MIDDLE TENNESSEE

CITY           SKY/WX    TMP DP  RH WIND       PRES   REMARKS
NASHVILLE      MOCLDY    66  63  90 CALM      30.01R
CLARKSVILLE    MOCLDY    65  64  97 CALM      29.98F
SMYRNA         CLEAR     64  64 100 CALM      30.02R
COOKEVILLE     CLEAR     61  59  94 CALM      30.04S
CROSSVILLE     CLEAR     63  59  87 CALM      30.10R
$$

TNZ061-075-076-078-094-096-097-271000-
SOUTH MIDDLE TENNESSEE

CITY           SKY/WX    TMP DP  RH WIND       PRES   REMARKS
TULLAHOMA      CLEAR     66  64  94 S7        30.05R
WINCHESTER     CLEAR     64  61  88 E3        30.05R
MCMINNVILLE    CLEAR     63  63 100 CALM      30.04S
COLUMBIA       CLEAR    N/A N/A N/A CALM      29.99R
SHELBYVILLE    CLEAR     68  63  83 CALM      30.03R
$$

TNZ017-018-042-046-047-271000-
NORTHEAST TENNESSEE

CITY           SKY/WX    TMP DP  RH WIND       PRES   REMARKS
TRI CITIES     MOCLDY    59  58  96 N3        30.12F FOG
$$

TNZ012-013-036-069-073-074-271000-
CENTRAL EAST TENNESSEE

CITY           SKY/WX    TMP DP  RH WIND       PRES   REMARKS
KNOXVILLE      PTCLDY    65  62  90 N3        30.07R
OAK RIDGE      CLEAR     64  61  90 CALM      30.09R
GATLINBURG     CLEAR     61  61 100 CALM      30.08R
$$

TNZ083-085-099-271000-
SOUTHEAST TENNESSEE

CITY           SKY/WX    TMP DP  RH WIND       PRES   REMARKS
CHATTANOOGA    CLEAR     66  62  87 CALM      30.05S
$$

SKY/WX REPORTED AS FAIR MEANS FEW OR NO CLOUDS BELOW
12 THOUSAND FEET.





USA.gov is the U.S. government's official web portal to all federal, state and local government web resources and services.